User: anonymous   Login
Location: Unspecified
(0.0000°N, 0.0000°E)
Time: 06:48:23
(UTC+00:00)
Language:

Meteosat 2 - Orbit

View from above orbital plane
View from above orbital plane
View from above satellite
View from above satellite

Ground track
Ground track

The orbit data is extracted from the following two-line orbital elements,

1 12544U 81057A   17086.24679274 -.00000158 +00000-0 +00000-0 0  9995
2 12544 015.0504 348.5575 0033850 294.4765 290.3957 00.98724192090620
Epoch (UTC): 27 March 2017 05:55:22
Eccentricity: 0.0033850
inclination: 15.0504°
perigee height: 36081 km
apogee height: 36370 km
right ascension of ascending node: 348.5575°
argument of perigee: 294.4765°
revolutions per day: 0.98724192
mean anomaly at epoch: 290.3957°
orbit number at epoch: 9062

The dashed part of the orbit path shows where the satellite is in the earth's shadow,  

DLR